Greenwood, SC

6:16 AM EDT on August 17, 2017 (GMT -0400)
Greenwood County

Weather History for KGRD - December, 2012

Change the Weather History Date:

Monday, December 31, 2012

  Actual Average (KAND) Record (KAND)
Temperature  
Mean Temperature 39 °F -  
Max Temperature 54 °F 52 °F 75 °F (1996)
Min Temperature 24 °F 35 °F 10 °F (1983)
Degree Days  
Heating Degree Days 26    
Moisture  
Dew Point 26 °F    
Average Humidity 59    
Maximum Humidity 91    
Minimum Humidity 31    
Precipitation  
Precipitation 0.00 in - - ()
Sea Level Pressure  
Sea Level Pressure 30.32 in    
Wind  
Wind Speed 3 mph (SW)    
Max Wind Speed 10 mph    
Max Gust Speed -    
Visibility 10 miles    
Events      
Averages and records for this station are not official NWS values.
T = Trace of Precipitation, MM = Missing Value Source: NWS Daily Summary

Daily Weather History Graph

Daily Weather History Graph

Search for Another Location

Airport or City:

Trip Planner

Search our weather history database for the weather conditions in past years. The results will help you decide how hot, cold, wet, or windy it might be!

Date:

Astronomy

Dec. 31, 2012 Rise Set
Actual Time 7:34 AM EST 5:29 PM EST
Civil Twilight 7:06 AM EST 5:57 PM EST
Nautical Twilight 6:35 AM EST 6:28 PM EST
Astronomical Twilight 6:05 AM EST 6:58 PM EST
Moon 8:49 PM EST (12/31) 9:24 AM EST (12/31)
Length of Visible Light 10h 50m
Length of Day
9h 54m
Waning Gibbous, 90% of the Moon is Illuminated
Dec 31
Waning Gibbous
Jan 4
Last Quarter
Jan 11
New
Jan 18
First Quarter
Jan 26
Full

Hourly Weather History & Observations

Time (EST) Temp. Windchill Dew Point Humidity Pressure Visibility Wind Dir Wind Speed Gust Speed Precip Events Conditions
12:56 AM 28.0 °F - 25.0 °F 88% 30.40 in 10.0 mi Calm Calm - N/A   Clear
1:56 AM 26.1 °F - 23.0 °F 88% 30.40 in 10.0 mi Calm Calm - N/A   Clear
2:56 AM 28.0 °F - 23.0 °F 81% 30.40 in 10.0 mi Calm Calm - N/A   Clear
3:56 AM 26.1 °F - 21.9 °F 84% 30.40 in 10.0 mi Calm Calm - N/A   Clear
4:56 AM 24.1 °F 19.7 °F 21.9 °F 91% 30.40 in 10.0 mi South 3.5 mph - N/A   Clear
5:56 AM 26.1 °F - 23.0 °F 88% 30.41 in 10.0 mi Calm Calm - N/A   Clear
6:56 AM 28.9 °F 25.2 °F 26.1 °F 89% 30.39 in 10.0 mi SSW 3.5 mph - N/A   Clear
7:56 AM 34.0 °F 28.0 °F 28.0 °F 79% 30.43 in 10.0 mi SW 6.9 mph - N/A   Clear
8:56 AM 37.0 °F 33.3 °F 30.0 °F 76% 30.41 in 10.0 mi SSW 4.6 mph - N/A   Clear
9:56 AM 39.9 °F 35.8 °F 28.9 °F 65% 30.39 in 10.0 mi SSW 5.8 mph - N/A   Clear
10:56 AM 45.0 °F 39.7 °F 26.1 °F 48% 30.41 in 10.0 mi WSW 10.4 mph - N/A   Clear
11:56 AM 48.0 °F - 25.0 °F 41% 30.36 in 10.0 mi WSW 10.4 mph - N/A   Clear
12:56 PM 50.0 °F - 26.1 °F 39% 30.32 in 10.0 mi SW 9.2 mph - N/A   Clear
1:56 PM 52.0 °F - 26.1 °F 37% 30.29 in 10.0 mi SW 10.4 mph - N/A   Clear
2:56 PM 53.1 °F - 26.1 °F 35% 30.25 in 10.0 mi SW 6.9 mph - N/A   Clear
3:56 PM 54.0 °F - 24.1 °F 31% 30.25 in 10.0 mi West 6.9 mph - N/A   Partly Cloudy
4:56 PM 52.0 °F - 26.1 °F 37% 30.26 in 10.0 mi WSW 4.6 mph - N/A   Mostly Cloudy
6:56 PM 50.0 °F - 28.0 °F 43% 30.25 in 10.0 mi SW 4.6 mph - N/A   Overcast
7:56 PM 50.0 °F - 27.0 °F 41% 30.23 in 10.0 mi Calm Calm - N/A   Overcast
8:56 PM 50.0 °F - 28.9 °F 44% 30.22 in 10.0 mi Calm Calm - N/A   Overcast
9:56 PM 48.9 °F - 30.0 °F 48% 30.21 in 10.0 mi SW 3.5 mph - N/A   Overcast
10:56 PM 50.0 °F - 28.9 °F 44% 30.19 in 10.0 mi SW 4.6 mph - N/A   Overcast
11:56 PM 50.0 °F - 30.9 °F 48% 30.17 in 10.0 mi SW 8.1 mph - N/A   Overcast